Surt, Libya
Current Conditions -  °F | °C
As of 7:15 AM on Monday 20 Oct 2014 (Local Time) from LMML Reporting Station
Few Clouds Few Clouds  
Wind Chill: 68°   Ceiling: Unl
Heat Index: 68°   Visibility: 6mi
Dew Point: 64°   Wind: 2mph
Humidity: 88%   Direction: NA
Pressure: 30.18"   Gusts: NA
Location:  31.21°N, 16.59°E
Report Text: LMML 200415Z VRB02KT 9999 FEW020 20/18 Q1022 NOSIG
Loading
Personal Weather Stations






























Interactive Weather Map
Tropical Storm Tracking
New forecast layout! Learn more

10-Day Weather Forecast

Advertisements
Track Severe Weather on mobile